DW6667 Weather Reports


time (UTC)temp
F
wind
direction
speed
knots
gust
knots
rain 1hr
in
rain 24hr
in
rain mn
in
humidity
%
barometer
mb
20260906235417 65 270 5.2 7.8 0.00 0.00 0.00 71 1014.7
20260906234420 66 320 4.3 7.0 0.00 0.00 0.00 70 1014.3
20260906233423 67 329 5.2 8.7 0.00 0.00 0.00 69 1013.5
20260906232425 67 3 5.2 7.8 0.00 0.00 0.00 67 1013.7
20260906231428 68 344 5.2 6.1 0.00 0.00 0.00 67 1013.7
20260906230431 68 347 4.3 7.0 0.00 0.00 0.00 66 1014.0
20260906225416 69 332 5.2 7.8 0.00 0.00 0.00 65 1014.3
20260906224418 69 355 7.0 8.7 0.00 0.00 0.00 64 1014.6
20260906223421 70 356 7.8 9.6 0.00 0.00 0.00 63 1014.5
20260906222423 71 232 3.5 5.2 0.00 0.00 0.00 61 1014.5
20260906221426 72 350 5.2 11.3 0.00 0.00 0.00 60 1014.5
20260906220429 74 24 6.1 7.8 0.00 0.00 0.00 57 1014.7
20260906215432 77 332 6.1 7.8 0.00 0.00 0.00 53 1014.8
20260906214417 77 340 7.0 8.7 0.00 0.00 0.00 54 1014.9
20260906213439 77 290 5.2 7.8 0.00 0.00 0.00 54 1015.2
20260906212422 77 27 3.5 4.3 0.00 0.00 0.00 54 1015.4
20260906211419 76 3 5.2 6.1 0.00 0.00 0.00 54 1015.4
20260906210415 76 312 3.5 3.5 0.00 0.00 0.00 55 1015.4
20260906205430 76 209 3.5 4.3 0.00 0.00 0.00 55 1015.8
20260906204433 75 103 1.7 3.5 0.00 0.00 0.00 56 1015.9
20260906203417 76 303 3.5 5.2 0.00 0.00 0.00 55 1016.0
20260906202419 75 23 1.7 2.6 0.00 0.00 0.00 56 1016.1
20260906201421 77 308 2.6 5.2 0.00 0.00 0.00 54 1016.1
20260906200444 74 292 2.6 3.5 0.00 0.00 0.00 57 1016.5
20260906195426 74 82 2.6 3.5 0.00 0.00 0.00 59 1016.6
20260906194429 73 266 3.5 4.3 0.00 0.00 0.00 58 1016.9
20260906193431 72 245 2.6 4.3 0.00 0.00 0.00 58 1016.9
20260906192436 71 182 1.7 3.5 0.00 0.00 0.00 61 1017.1
20260906191438 72 281 1.7 3.5 0.00 0.00 0.00 59 1017.1
20260906190421 71 225 1.7 2.6 0.00 0.00 0.00 61 1017.3
20260906185424 70 179 2.6 3.5 0.00 0.00 0.00 61 1017.4
20260906184426 72 317 3.5 5.2 0.00 0.00 0.00 60 1017.7
20260906183423 71 269 2.6 4.3 0.00 0.00 0.00 62 1018.0
20260906182420 71 332 1.7 3.5 0.00 0.00 0.00 60 1018.2
20260906181417 70 338 2.6 3.5 0.00 0.00 0.00 62 1018.2
20260906180432 70 285 2.6 3.5 0.00 0.00 0.00 61 1018.4
20260906175417 69 50 2.6 3.5 0.00 0.00 0.00 64 1018.6
20260906174419 69 108 2.6 4.3 0.00 0.00 0.00 64 1018.9
20260906173422 70 334 3.5 3.5 0.00 0.00 0.00 62 1019.1
20260906172445 69 340 2.6 3.5 0.00 0.00 0.00 63 1019.2
20260906171427 70 300 3.5 5.2 0.00 0.00 0.00 63 1019.3
20260906170430 69 264 1.7 3.5 0.00 0.00 0.00 64 1019.3
20260906165433 67 86 0.9 3.5 0.00 0.00 0.00 68 1019.5
20260906164417 67 97 3.5 4.3 0.00 0.00 0.00 68 1019.6
20260906163419 67 62 3.5 3.5 0.00 0.00 0.00 70 1019.8
20260906162421 67 287 2.6 3.5 0.00 0.00 0.00 67 1020.1
20260906161444 67 314 4.3 6.1 0.00 0.00 0.00 68 1020.1
20260906160427 66 317 3.5 4.3 0.00 0.00 0.00 71 1020.2
20260906155430 66 4 3.5 4.3 0.00 0.00 0.00 72 1020.4
20260906154426 65 281 0.9 2.6 0.00 0.00 0.00 73 1020.5
20260906153457 64 303 2.6 4.3 0.00 0.00 0.00 74 1020.8
20260906152420 65 317 2.6 3.5 0.00 0.00 0.00 74 1020.8
20260906151416 65 255 4.3 6.1 0.00 0.00 0.00 74 1020.8
20260906150445 64 333 2.6 4.3 0.00 0.00 0.00 76 1021.0
20260906145428 62 256 1.7 2.6 0.00 0.00 0.00 80 1021.0
20260906144431 61 168 1.7 2.6 0.00 0.00 0.00 82 1021.0
20260906143415 59 212 1.7 2.6 0.00 0.00 0.00 85 1021.0
20260906142418 59 189 0.9 1.7 0.00 0.00 0.00 85 1021.2
20260906141420 59 212 1.7 1.7 0.00 0.00 0.00 86 1021.4
20260906140423 58 0.0 0.0 0.00 0.00 0.00 88 1021.4
20260906135426 57 203 0.9 2.6 0.00 0.00 0.00 90 1021.4
20260906134429 57 0.0 0.0 0.00 0.00 0.00 90 1021.4
20260906133451 57 0.0 0.0 0.00 0.00 0.00 90 1021.2
20260906132415 57 0.0 0.0 0.00 0.00 0.00 90 1021.5
20260906131418 57 0.0 0.0 0.00 0.00 0.00 90 1021.5
20260906130420 57 0.0 0.0 0.00 0.00 0.00 90 1021.7
20260906125423 57 270 0.0 1.7 0.00 0.00 0.00 89 1021.7
20260906124425 57 278 0.9 1.7 0.00 0.00 0.00 89 1021.7
20260906123423 57 293 0.9 1.7 0.00 0.00 0.00 89 1021.5
20260906122419 57 328 0.9 3.5 0.00 0.00 0.00 89 1021.2
20260906121416 57 0.0 0.0 0.00 0.00 0.00 88 1021.2
20260906120438 57 0.9 1.7 0.00 0.00 0.00 87 1021.6
20260906115420 57 338 0.9 1.7 0.00 0.00 0.00 86 1021.5
20260906114422 58 14 0.9 1.7 0.00 0.00 0.00 86 1021.6
20260906113425 58 349 3.5 5.2 0.00 0.00 0.00 85 1021.9
20260906112428 58 286 2.6 4.3 0.00 0.00 0.00 84 1021.4
20260906111431 58 349 2.6 4.3 0.00 0.00 0.00 84 1021.4
20260906110415 58 314 3.5 5.2 0.00 0.00 0.00 84 1021.4
20260906105438 58 339 3.5 6.1 0.00 0.00 0.00 84 1021.2
20260906104420 58 296 3.5 4.3 0.00 0.00 0.00 84 1021.3
20260906103422 58 298 6.1 8.7 0.00 0.00 0.00 85 1020.8
20260906102425 58 270 5.2 7.0 0.00 0.00 0.00 86 1020.5
20260906101427 57 308 7.0 8.7 0.00 0.00 0.00 86 1020.5
20260906100450 57 288 5.2 7.0 0.00 0.00 0.00 86 1020.2
20260906095426 57 261 4.3 6.1 0.00 0.00 0.00 86 1019.9
20260906094416 57 277 4.3 5.2 0.00 0.00 0.00 86 1019.6
20260906093459 57 228 2.6 2.6 0.00 0.00 0.00 86 1019.3
20260906092415 56 293 0.9 2.6 0.00 0.00 0.00 86 1019.3
20260906091443 56 324 1.7 3.5 0.00 0.00 0.00 87 1019.3
20260906090425 56 0.0 0.0 0.00 0.00 0.00 87 1019.3
20260906085448 56 0.0 0.0 0.00 0.00 0.00 87 1019.6
20260906084430 56 293 0.9 2.6 0.00 0.00 0.00 88 1019.6
20260906083432 55 262 1.7 3.5 0.00 0.00 0.00 89 1019.6
20260906082416 55 0.0 0.0 0.00 0.00 0.00 88 1019.8
20260906081419 55 0.0 1.7 0.00 0.00 0.00 88 1019.8
20260906080421 55 250 1.7 2.6 0.00 0.00 0.00 87 1019.9
20260906075424 56 212 1.7 2.6 0.00 0.00 0.00 86 1020.1
20260906074426 57 270 0.9 3.5 0.00 0.00 0.00 86 1020.1
20260906073429 57 248 0.0 0.9 0.00 0.00 0.00 86 1020.2
20260906072431 57 293 0.9 1.7 0.00 0.00 0.00 85 1020.4
20260906071436 57 291 3.5 5.2 0.00 0.00 0.00 85 1020.4
20260906070418 57 283 3.5 6.1 0.00 0.00 0.00 85 1020.5
20260906065420 57 293 0.9 1.7 0.00 0.00 0.00 84 1020.8
20260906064417 57 270 1.7 1.7 0.00 0.00 0.00 83 1020.8
20260906063445 58 0.9 2.6 0.00 0.00 0.00 83 1021.0
20260906062428 58 270 1.7 4.3 0.00 0.00 0.00 82 1021.0
20260906061450 58 314 0.9 3.5 0.00 0.00 0.00 81 1021.0
20260906060432 58 323 3.5 6.1 0.00 0.00 0.00 81 1021.0
20260906055416 58 315 1.7 3.5 0.00 0.00 0.00 80 1021.2
20260906054419 59 90 0.0 1.7 0.00 0.00 0.00 78 1021.3
20260906053422 59 332 2.6 4.3 0.00 0.00 0.00 77 1021.4
20260906052419 59 146 2.6 2.6 0.00 0.00 0.00 76 1021.4
20260906051421 60 0.0 0.0 0.00 0.00 0.00 75 1021.4
20260906050445 61 360 1.7 3.5 0.00 0.00 0.00 73 1021.4
20260906045427 62 312 2.6 4.3 0.00 0.00 0.00 71 1021.2
20260906044450 61 31 4.3 7.0 0.00 0.00 0.00 70 1021.2
20260906043432 61 283 4.3 7.8 0.00 0.00 0.00 70 1020.8
20260906042417 61 333 3.5 4.3 0.00 0.00 0.00 69 1020.8
20260906041420 62 313 4.3 8.7 0.00 0.00 0.00 67 1020.8
20260906040423 62 277 5.2 6.1 0.00 0.00 0.00 66 1020.8
20260906035419 62 301 7.0 7.8 0.00 0.00 0.00 65 1020.8
20260906034416 63 298 3.5 7.8 0.00 0.00 0.00 66 1020.5
20260906033431 63 279 4.3 5.2 0.00 0.00 0.00 66 1019.9
20260906032415 63 301 7.0 7.8 0.00 0.00 0.00 67 1019.6
20260906031438 63 346 7.8 8.7 0.00 0.00 0.00 66 1019.6
20260906030420 64 291 5.2 7.8 0.00 0.00 0.00 65 1019.1
20260906025423 65 284 7.0 13.0 0.00 0.00 0.00 61 1018.7
20260906024426 66 299 7.0 9.6 0.00 0.00 0.00 59 1018.5
20260906023428 66 288 4.3 6.1 0.00 0.00 0.00 60 1018.4
20260906022431 66 287 6.1 9.6 0.00 0.00 0.00 60 1018.2
20260906021416 66 270 6.1 8.7 0.00 0.00 0.00 61 1018.2
20260906020418 66 302 7.0 8.7 0.00 0.00 0.00 60 1018.0
20260906015421 67 289 5.2 7.0 0.00 0.00 0.00 57 1018.0
20260906014444 67 23 0.9 2.6 0.00 0.00 0.00 57 1017.8
20260906013427 67 270 3.5 5.2 0.00 0.00 0.00 57 1017.7
20260906012429 67 270 3.5 5.2 0.00 0.00 0.00 58 1017.6
20260906011426 67 293 2.6 5.2 0.00 0.00 0.00 58 1017.6
20260906010457 68 252 3.5 4.3 0.00 0.00 0.00 57 1017.4
20260906005419 69 312 3.5 5.2 0.00 0.00 0.00 56 1017.5
20260906004416 71 333 3.5 4.3 0.00 0.00 0.00 54 1017.5
20260906003425 73 334 6.1 7.8 0.00 0.00 0.00 52 1017.6
20260906002427 75 301 6.1 7.8 0.00 0.00 0.00 51 1017.5
20260906001430 75 319 4.3 6.1 0.00 0.00 0.00 50 1017.5
20260906000415 76 316 3.5 4.3 0.00 0.00 0.00 50 1017.6